Weather History for KGCK

Nearest airport to NA, NA.

See history from more local stations
Change the Weather History Date:

Thursday, September 26, 2013

  Actual Average Record
Temperature  
Mean Temperature 78 °F 64 °F  
Max Temperature 97 °F 78 °F 97 °F (2013)
Min Temperature 59 °F 50 °F 33 °F (1985)
Degree Days  
Heating Degree Days 0 4  
Month to date heating degree days 6 48  
Since 1 July heating degree days 6 52  
Cooling Degree Days 13 3  
Month to date cooling degree days 224 153  
Year to date cooling degree days 1566 1269  
Growing Degree Days 28 (Base 50)    
Moisture  
Dew Point 48 °F    
Average Humidity 40    
Maximum Humidity 67    
Minimum Humidity 13    
Precipitation  
Precipitation 0.00 in 0.04 in 0.17 in (1967)
Month to date precipitation 1.22 1.30  
Year to date precipitation 11.39 16.95  
Sea Level Pressure  
Sea Level Pressure 29.57 in    
Wind  
Wind Speed 18 mph (South)    
Max Wind Speed 36 mph    
Max Gust Speed 45 mph    
Visibility 10 miles    
Events      
T = Trace of Precipitation, MM = Missing Value Source: NWS Daily Summary

Daily Weather History Graph

Daily Weather History Graph

Search for Another Location

Airport or City:

Trip Planner

Search our weather history database for the weather conditions in past years. The results will help you decide how hot, cold, wet, or windy it might be!

Date:

Astronomy

Sep. 26, 2013 Rise Set
Actual Time 7:34 AM CDT 7:33 PM CDT
Civil Twilight 7:08 AM CDT 7:59 PM CDT
Nautical Twilight 6:37 AM CDT 8:29 PM CDT
Astronomical Twilight 6:06 AM CDT 9:00 PM CDT
Moon No Moon Rise 2:22 PM CDT (9/26)
Length of Visible Light 12h 51m
Length of Day
11h 58m
Waning Gibbous, 54% of the Moon is Illuminated
Sep 26
Waning Gibbous
Sep 26
Last Quarter
Oct 4
New
Oct 11
First Quarter
Oct 18
Full

Hourly Weather History & Observations

Time (CDT) Temp. Heat Index Dew Point Humidity Pressure Visibility Wind Dir Wind Speed Gust Speed Precip Events Conditions
12:54 AM 66.9 °F - 46.9 °F 49% 29.56 in 10.0 mi SSE 12.7 mph - N/A   Clear
1:54 AM 64.9 °F - 48.0 °F 54% 29.55 in 10.0 mi SE 12.7 mph - N/A   Clear
2:54 AM 64.0 °F - 48.0 °F 56% 29.54 in 10.0 mi South 10.4 mph - N/A   Clear
3:54 AM 63.0 °F - 48.9 °F 60% 29.53 in 10.0 mi SSE 12.7 mph - N/A   Clear
4:54 AM 60.1 °F - 48.9 °F 67% 29.54 in 10.0 mi SE 10.4 mph - N/A   Clear
5:54 AM 61.0 °F - 48.9 °F 64% 29.54 in 10.0 mi SSE 10.4 mph - N/A   Clear
6:54 AM 61.0 °F - 48.9 °F 64% 29.56 in 10.0 mi SSE 10.4 mph - N/A   Clear
7:54 AM 59.0 °F - 48.9 °F 69% 29.60 in 10.0 mi SSE 8.1 mph - N/A   Clear
8:54 AM 66.0 °F - 50.0 °F 56% 29.60 in 10.0 mi South 11.5 mph - N/A   Clear
9:54 AM 75.0 °F - 48.9 °F 40% 29.60 in 10.0 mi South 17.3 mph 25.3 mph N/A   Clear
10:54 AM 80.1 °F - 48.0 °F 32% 29.61 in 10.0 mi SSW 18.4 mph 27.6 mph N/A   Clear
11:54 AM 84.9 °F - 48.0 °F 28% 29.60 in 10.0 mi SSW 18.4 mph 25.3 mph N/A   Clear
12:54 PM 89.1 °F - 46.9 °F 23% 29.58 in 10.0 mi SSW 21.9 mph 31.1 mph N/A   Clear
1:54 PM 93.9 °F - 46.0 °F 19% 29.55 in 10.0 mi SSW 24.2 mph 36.8 mph N/A   Clear
2:54 PM 95.0 °F - 44.1 °F 17% 29.54 in 10.0 mi SSW 21.9 mph 32.2 mph N/A   Clear
3:54 PM 96.1 °F - 37.9 °F 13% 29.52 in 9.0 mi SSW 28.8 mph 41.4 mph N/A   Clear
4:54 PM 96.1 °F - 39.0 °F 14% 29.53 in 10.0 mi SSW 27.6 mph 42.6 mph N/A   Clear
5:54 PM 95.0 °F - 39.0 °F 14% 29.53 in 9.0 mi SSW 32.2 mph 43.7 mph N/A   Clear
6:54 PM 90.0 °F - 51.1 °F 26% 29.55 in 10.0 mi South 27.6 mph 36.8 mph N/A   Clear
7:54 PM 84.0 °F 82.6 °F 54.0 °F 35% 29.58 in 10.0 mi South 19.6 mph 29.9 mph N/A   Clear
8:54 PM 81.0 °F 80.5 °F 54.0 °F 39% 29.60 in 10.0 mi South 16.1 mph 25.3 mph N/A   Clear
9:54 PM 80.1 °F 80.1 °F 55.0 °F 42% 29.60 in 10.0 mi South 17.3 mph 27.6 mph N/A   Clear
10:54 PM 78.1 °F - 54.0 °F 43% 29.61 in 10.0 mi South 20.7 mph 31.1 mph N/A   Clear
11:54 PM 77.0 °F - 52.0 °F 42% 29.62 in 10.0 mi South 19.6 mph 27.6 mph N/A   Clear